Time,TemperatureF,DewpointF,PressureIn,WindDirection,WindDirectionDegrees,WindSpeedMPH,WindSpeedGustMPH,Humidity,HourlyPrecipIn,Conditions,Clouds,dailyrainin,SolarRadiationWatts/m^2,SoftwareType,DateUTC
2013-01-12 00:03:00,49.4,46.3,29.65,East,90,9.2,9.2,89,0.00,RA,,0.00,0.0,WeatherDisplay:10.37,2013-01-12 06:03:00,
2013-01-12 00:08:00,49.3,46.5,29.65,South,173,9.2,9.2,90,0.00,RA,,0.00,0.0,WeatherDisplay:10.37,2013-01-12 06:08:00,
2013-01-12 00:13:00,49.5,46.7,29.65,South,191,8.1,8.1,90,0.00,CLR,,0.00,0.0,WeatherDisplay:10.37,2013-01-12 06:13:00,
2013-01-12 00:18:00,49.5,46.4,29.64,SSE,148,18.0,18.0,89,0.00,CLR,,0.00,0.0,WeatherDisplay:10.37,2013-01-12 06:18:00,
2013-01-12 00:23:00,49.6,46.5,29.65,SSE,159,5.8,5.8,89,0.00,CLR,,0.00,0.0,WeatherDisplay:10.37,2013-01-12 06:23:00,
2013-01-12 00:28:00,49.5,46.4,29.65,SSW,202,6.9,6.9,89,0.00,CLR,,0.00,0.0,WeatherDisplay:10.37,2013-01-12 06:28:00,
2013-01-12 00:33:00,49.3,46.2,29.65,South,177,9.2,9.2,89,0.00,CLR,,0.00,0.0,WeatherDisplay:10.37,2013-01-12 06:33:00,
2013-01-12 00:38:00,49.3,46.2,29.65,South,171,6.0,6.0,89,0.00,CLR,,0.00,0.0,WeatherDisplay:10.37,2013-01-12 06:38:00,
2013-01-12 00:43:00,49.3,46.2,29.66,South,185,11.5,11.5,89,0.00,CLR,,0.00,0.0,WeatherDisplay:10.37,2013-01-12 06:43:00,
2013-01-12 00:48:00,49.3,46.2,29.66,SE,142,7.0,7.0,89,0.00,CLR,,0.00,0.0,WeatherDisplay:10.37,2013-01-12 06:48:00,
2013-01-12 00:53:00,49.2,46.1,29.66,SSE,163,7.0,7.0,89,0.00,CLR,,0.00,0.0,WeatherDisplay:10.37,2013-01-12 06:53:00,
2013-01-12 00:58:00,49.2,46.1,29.66,SSW,202,4.6,4.6,89,0.00,CLR,,0.00,0.0,WeatherDisplay:10.37,2013-01-12 06:58:00,
2013-01-12 01:03:00,49.1,46.0,29.66,South,180,5.8,5.8,89,0.00,CLR,,0.00,0.0,WeatherDisplay:10.37,2013-01-12 07:03:00,
2013-01-12 01:08:00,49.2,46.1,29.66,South,187,5.0,5.0,89,0.00,CLR,,0.00,0.0,WeatherDisplay:10.37,2013-01-12 07:08:00,
2013-01-12 01:13:00,49.2,46.1,29.66,WSW,241,8.1,8.1,89,0.00,CLR,,0.00,0.0,WeatherDisplay:10.37,2013-01-12 07:13:00,
2013-01-12 01:18:00,49.2,46.1,29.66,South,185,5.8,5.8,89,0.00,CLR,,0.00,0.0,WeatherDisplay:10.37,2013-01-12 07:18:00,
2013-01-12 01:23:00,49.0,45.9,29.66,SE,130,3.5,3.5,89,0.00,CLR,,0.00,0.0,WeatherDisplay:10.37,2013-01-12 07:23:00,
2013-01-12 01:28:00,48.9,45.8,29.66,WSW,244,5.8,5.8,89,0.00,CLR,,0.00,0.0,WeatherDisplay:10.37,2013-01-12 07:28:00,
2013-01-12 01:33:00,48.9,45.8,29.67,South,185,10.4,10.4,89,0.00,CLR,,0.00,0.0,WeatherDisplay:10.37,2013-01-12 07:33:00,
2013-01-12 01:38:00,49.0,45.9,29.67,South,189,4.6,4.6,89,0.00,CLR,,0.00,0.0,WeatherDisplay:10.37,2013-01-12 07:38:00,
2013-01-12 01:43:00,49.0,45.9,29.67,SSE,160,4.0,4.0,89,0.00,CLR,,0.00,0.0,WeatherDisplay:10.37,2013-01-12 07:43:00,
2013-01-12 01:48:00,49.0,45.9,29.67,SSE,148,10.4,10.4,89,0.00,CLR,,0.00,0.0,WeatherDisplay:10.37,2013-01-12 07:48:00,
2013-01-12 01:53:00,49.0,45.9,29.67,SW,219,5.0,5.0,89,0.00,CLR,,0.00,0.0,WeatherDisplay:10.37,2013-01-12 07:53:00,
2013-01-12 01:58:00,49.0,45.9,29.67,South,191,5.8,5.8,89,0.00,CLR,,0.00,0.0,WeatherDisplay:10.37,2013-01-12 07:58:00,
2013-01-12 02:03:00,48.8,45.7,29.68,SSW,193,4.6,4.6,89,0.00,CLR,,0.00,0.0,WeatherDisplay:10.37,2013-01-12 08:03:00,
2013-01-12 02:08:00,48.6,45.2,29.68,SSW,206,5.8,5.8,88,0.00,CLR,,0.00,0.0,WeatherDisplay:10.37,2013-01-12 08:08:00,
2013-01-12 02:13:00,48.4,45.3,29.68,South,171,5.8,5.8,89,0.00,CLR,,0.00,0.0,WeatherDisplay:10.37,2013-01-12 08:13:00,
2013-01-12 02:18:00,48.3,45.2,29.68,South,182,6.0,6.0,89,0.00,CLR,,0.00,0.0,WeatherDisplay:10.37,2013-01-12 08:18:00,
2013-01-12 02:23:00,48.3,45.2,29.68,SSE,166,5.8,5.8,89,0.00,CLR,,0.00,0.0,WeatherDisplay:10.37,2013-01-12 08:23:00,
2013-01-12 02:28:00,48.2,45.1,29.68,SSW,212,6.9,6.9,89,0.00,CLR,,0.00,0.0,WeatherDisplay:10.37,2013-01-12 08:28:00,
2013-01-12 02:33:00,48.3,45.2,29.68,SSE,150,2.3,2.3,89,0.00,CLR,,0.00,0.0,WeatherDisplay:10.37,2013-01-12 08:33:00,
2013-01-12 02:38:00,48.3,45.2,29.68,ESE,112,3.5,3.5,89,0.00,CLR,,0.00,0.0,WeatherDisplay:10.37,2013-01-12 08:38:00,
2013-01-12 02:43:00,48.2,45.1,29.68,SSW,194,2.0,2.0,89,0.00,CLR,,0.00,0.0,WeatherDisplay:10.37,2013-01-12 08:43:00,
2013-01-12 02:48:00,48.3,45.2,29.68,South,169,6.9,6.9,89,0.00,CLR,,0.00,0.0,WeatherDisplay:10.37,2013-01-12 08:48:00,
2013-01-12 02:54:00,48.4,45.3,29.68,SSW,208,9.0,9.0,89,0.00,CLR,,0.00,0.0,WeatherDisplay:10.37,2013-01-12 08:54:00,
2013-01-12 02:59:00,48.4,45.3,29.67,South,173,4.6,4.6,89,0.00,CLR,,0.00,0.0,WeatherDisplay:10.37,2013-01-12 08:59:00,
2013-01-12 03:04:00,48.6,45.5,29.67,South,170,4.6,4.6,89,0.00,CLR,,0.00,0.0,WeatherDisplay:10.37,2013-01-12 09:04:00,
2013-01-12 03:09:00,48.8,45.7,29.67,South,181,11.5,11.5,89,0.00,CLR,,0.00,0.0,WeatherDisplay:10.37,2013-01-12 09:09:00,
2013-01-12 03:14:00,48.8,45.7,29.67,SE,146,3.5,3.5,89,0.00,CLR,,0.00,0.0,WeatherDisplay:10.37,2013-01-12 09:14:00,
2013-01-12 03:19:00,48.7,45.6,29.67,SSW,194,5.8,5.8,89,0.00,CLR,,0.00,0.0,WeatherDisplay:10.37,2013-01-12 09:19:00,
2013-01-12 03:24:00,48.7,45.6,29.67,South,185,6.9,6.9,89,0.00,CLR,,0.00,0.0,WeatherDisplay:10.37,2013-01-12 09:24:00,
2013-01-12 03:29:00,48.6,45.5,29.67,SSE,165,5.8,5.8,89,0.00,CLR,,0.00,0.0,WeatherDisplay:10.37,2013-01-12 09:29:00,
2013-01-12 03:34:00,48.8,45.7,29.67,SE,142,10.4,10.4,89,0.00,CLR,,0.00,0.0,WeatherDisplay:10.37,2013-01-12 09:34:00,
2013-01-12 03:39:00,48.9,45.8,29.67,South,189,8.1,8.1,89,0.00,CLR,,0.00,0.0,WeatherDisplay:10.37,2013-01-12 09:39:00,
2013-01-12 03:44:00,48.9,45.5,29.67,South,174,6.9,6.9,88,0.00,CLR,,0.00,0.0,WeatherDisplay:10.37,2013-01-12 09:44:00,
2013-01-12 03:49:00,49.0,45.6,29.67,South,183,3.5,3.5,88,0.00,CLR,,0.00,0.0,WeatherDisplay:10.37,2013-01-12 09:49:00,
2013-01-12 03:54:00,48.9,45.5,29.67,SSW,202,4.6,4.6,88,0.00,CLR,,0.00,0.0,WeatherDisplay:10.37,2013-01-12 09:54:00,
2013-01-12 03:59:00,49.0,45.6,29.67,South,183,11.5,11.5,88,0.00,CLR,,0.00,0.0,WeatherDisplay:10.37,2013-01-12 09:59:00,
2013-01-12 04:04:00,49.2,45.8,29.67,SSE,158,6.9,6.9,88,0.00,CLR,,0.00,0.0,WeatherDisplay:10.37,2013-01-12 10:04:00,
2013-01-12 04:09:00,49.0,45.6,29.67,South,177,4.0,4.0,88,0.00,CLR,,0.00,0.0,WeatherDisplay:10.37,2013-01-12 10:09:00,
2013-01-12 04:14:00,49.0,45.6,29.67,South,188,5.0,5.0,88,0.00,CLR,,0.00,0.0,WeatherDisplay:10.37,2013-01-12 10:14:00,
2013-01-12 04:19:00,49.2,45.8,29.67,South,186,5.8,5.8,88,0.00,CLR,,0.00,0.0,WeatherDisplay:10.37,2013-01-12 10:19:00,
2013-01-12 04:24:00,49.3,45.6,29.67,South,180,6.0,6.0,87,0.00,CLR,,0.00,0.0,WeatherDisplay:10.37,2013-01-12 10:24:00,
2013-01-12 04:29:00,49.3,45.6,29.67,SSW,199,9.2,9.2,87,0.00,CLR,,0.00,0.0,WeatherDisplay:10.37,2013-01-12 10:29:00,
2013-01-12 04:34:00,49.3,45.6,29.67,South,169,4.6,4.6,87,0.00,CLR,,0.00,0.0,WeatherDisplay:10.37,2013-01-12 10:34:00,
2013-01-12 04:39:00,49.2,45.5,29.67,SSE,162,10.4,10.4,87,0.00,CLR,,0.00,0.0,WeatherDisplay:10.37,2013-01-12 10:39:00,
2013-01-12 04:44:00,49.2,45.5,29.67,SSE,159,4.6,4.6,87,0.00,CLR,,0.00,0.0,WeatherDisplay:10.37,2013-01-12 10:44:00,
2013-01-12 04:49:00,49.2,45.5,29.67,South,187,5.8,5.8,87,0.00,CLR,,0.00,0.0,WeatherDisplay:10.37,2013-01-12 10:49:00,
2013-01-12 04:54:00,49.4,45.7,29.67,South,183,8.1,8.1,87,0.00,CLR,,0.00,0.0,WeatherDisplay:10.37,2013-01-12 10:54:00,
2013-01-12 04:59:00,49.6,45.9,29.67,South,183,7.0,7.0,87,0.00,CLR,,0.00,0.0,WeatherDisplay:10.37,2013-01-12 10:59:00,
2013-01-12 05:04:00,49.6,45.6,29.67,SE,134,4.6,4.6,86,0.00,CLR,,0.00,0.0,WeatherDisplay:10.37,2013-01-12 11:04:00,
2013-01-12 05:09:00,49.7,45.7,29.67,SSW,194,5.8,5.8,86,0.00,CLR,,0.00,0.0,WeatherDisplay:10.37,2013-01-12 11:09:00,
2013-01-12 05:14:00,49.7,45.7,29.67,South,182,5.8,5.8,86,0.00,CLR,,0.00,0.0,WeatherDisplay:10.37,2013-01-12 11:14:00,
2013-01-12 05:19:00,49.6,45.6,29.68,SSW,194,5.0,5.0,86,0.00,CLR,,0.00,0.0,WeatherDisplay:10.37,2013-01-12 11:19:00,
2013-01-12 05:24:00,49.7,45.7,29.67,South,179,6.9,6.9,86,0.00,CLR,,0.00,0.0,WeatherDisplay:10.37,2013-01-12 11:24:00,
2013-01-12 05:29:00,49.6,45.6,29.68,SSW,198,5.8,5.8,86,0.00,CLR,,0.00,0.0,WeatherDisplay:10.37,2013-01-12 11:29:00,
2013-01-12 05:34:00,49.6,45.6,29.68,ESE,117,8.1,8.1,86,0.00,CLR,,0.00,0.0,WeatherDisplay:10.37,2013-01-12 11:34:00,
2013-01-12 05:39:00,49.6,45.6,29.68,SSE,148,9.2,9.2,86,0.00,CLR,,0.00,0.0,WeatherDisplay:10.37,2013-01-12 11:39:00,
2013-01-12 05:44:00,49.4,45.4,29.68,South,170,4.6,5.0,86,0.00,CLR,,0.00,0.0,WeatherDisplay:10.37,2013-01-12 11:44:00,
2013-01-12 05:49:00,49.4,45.4,29.68,South,171,4.6,4.6,86,0.00,CLR,,0.00,0.0,WeatherDisplay:10.37,2013-01-12 11:49:00,
2013-01-12 05:54:00,49.5,45.5,29.68,SSE,152,7.0,7.0,86,0.00,CLR,,0.00,0.0,WeatherDisplay:10.37,2013-01-12 11:54:00,
2013-01-12 05:59:00,49.5,45.2,29.69,South,178,6.9,6.9,85,0.00,CLR,,0.00,0.0,WeatherDisplay:10.37,2013-01-12 11:59:00,
2013-01-12 06:04:00,49.6,45.3,29.69,South,181,6.9,6.9,85,0.00,CLR,,0.00,0.0,WeatherDisplay:10.37,2013-01-12 12:04:00,
2013-01-12 06:09:00,49.5,45.2,29.69,SSE,166,9.2,9.2,85,0.00,CLR,,0.00,0.0,WeatherDisplay:10.37,2013-01-12 12:09:00,
2013-01-12 06:14:00,49.4,45.1,29.70,South,178,10.4,10.4,85,0.00,CLR,,0.00,0.0,WeatherDisplay:10.37,2013-01-12 12:14:00,
2013-01-12 06:19:00,49.5,45.2,29.70,SSE,165,11.5,11.5,85,0.00,CLR,,0.00,0.0,WeatherDisplay:10.37,2013-01-12 12:19:00,
2013-01-12 06:24:00,49.5,44.9,29.70,South,186,10.4,10.4,84,0.00,CLR,,0.00,0.0,WeatherDisplay:10.37,2013-01-12 12:24:00,
2013-01-12 06:29:00,49.5,44.9,29.70,SSW,193,20.7,20.7,84,0.00,CLR,,0.00,0.0,WeatherDisplay:10.37,2013-01-12 12:29:00,
2013-01-12 06:34:00,49.6,44.6,29.71,South,181,9.2,9.2,83,0.00,CLR,,0.00,0.0,WeatherDisplay:10.37,2013-01-12 12:34:00,
2013-01-12 06:39:00,49.3,44.4,29.71,SW,215,15.0,15.0,83,0.00,CLR,,0.00,0.0,WeatherDisplay:10.37,2013-01-12 12:39:00,
2013-01-12 06:44:00,49.3,44.4,29.72,WSW,242,11.5,11.5,83,0.00,CLR,,0.00,0.0,WeatherDisplay:10.37,2013-01-12 12:44:00,
2013-01-12 06:49:00,49.3,44.4,29.72,SSW,194,10.4,10.4,83,0.00,CLR,,0.00,0.0,WeatherDisplay:10.37,2013-01-12 12:49:00,
2013-01-12 06:54:00,49.2,43.6,29.73,SSW,193,13.8,13.8,81,0.00,CLR,,0.00,0.0,WeatherDisplay:10.37,2013-01-12 12:54:00,
2013-01-12 06:59:00,49.1,43.2,29.73,SW,219,10.4,10.4,80,0.00,CLR,,0.00,0.0,WeatherDisplay:10.37,2013-01-12 12:59:00,
2013-01-12 07:04:00,48.7,43.1,29.74,SSE,156,9.2,9.2,81,0.00,OVC,,0.00,0.0,WeatherDisplay:10.37,2013-01-12 13:04:00,
2013-01-12 07:09:00,47.9,42.3,29.74,WSW,251,12.7,12.7,81,0.00,OVC,,0.00,0.0,WeatherDisplay:10.37,2013-01-12 13:09:00,
2013-01-12 07:14:00,47.2,42.0,29.75,SSW,208,11.5,11.5,82,0.00,OVC,,0.00,0.0,WeatherDisplay:10.37,2013-01-12 13:14:00,
2013-01-12 07:19:00,46.2,41.0,29.75,SW,218,18.4,18.4,82,0.00,OVC,,0.00,0.0,WeatherDisplay:10.37,2013-01-12 13:19:00,
2013-01-12 07:24:00,45.1,40.2,29.75,SW,216,9.2,9.2,83,0.00,OVC,,0.00,0.0,WeatherDisplay:10.37,2013-01-12 13:24:00,
2013-01-12 07:29:00,44.5,40.0,29.76,SW,221,9.2,9.2,84,0.00,OVC,,0.00,0.0,WeatherDisplay:10.37,2013-01-12 13:29:00,
2013-01-12 07:34:00,44.2,38.7,29.76,SSW,197,21.9,21.9,81,0.00,BKN,,0.00,5.0,WeatherDisplay:10.37,2013-01-12 13:34:00,
2013-01-12 07:39:00,43.7,37.6,29.76,SW,227,20.7,20.7,79,0.00,BKN,,0.00,9.0,WeatherDisplay:10.37,2013-01-12 13:39:00,
2013-01-12 07:44:00,43.1,37.0,29.77,SW,217,10.4,10.4,79,0.00,BKN,,0.00,12.0,WeatherDisplay:10.37,2013-01-12 13:44:00,
2013-01-12 07:49:00,42.6,36.9,29.78,SSW,196,9.2,9.2,80,0.00,BKN,,0.00,16.0,WeatherDisplay:10.37,2013-01-12 13:49:00,
2013-01-12 07:54:00,42.1,36.4,29.78,SW,221,11.5,11.5,80,0.00,SCT,,0.00,26.0,WeatherDisplay:10.37,2013-01-12 13:54:00,
2013-01-12 07:59:00,41.8,36.1,29.79,South,191,10.0,10.0,80,0.00,SCT,,0.00,33.0,WeatherDisplay:10.37,2013-01-12 13:59:00,
2013-01-12 08:04:00,41.4,35.4,29.79,SSW,192,10.4,10.4,79,0.00,SCT,,0.00,44.0,WeatherDisplay:10.37,2013-01-12 14:04:00,
2013-01-12 08:09:00,41.1,35.1,29.80,South,179,11.5,11.5,79,0.00,CLR,,0.00,70.0,WeatherDisplay:10.37,2013-01-12 14:09:00,
2013-01-12 08:14:00,40.9,34.9,29.80,South,189,19.6,19.6,79,0.00,CLR,,0.00,77.0,WeatherDisplay:10.37,2013-01-12 14:14:00,
2013-01-12 08:19:00,40.4,34.1,29.81,SSW,207,15.0,15.0,78,0.00,SCT,,0.00,56.0,WeatherDisplay:10.37,2013-01-12 14:19:00,
2013-01-12 08:24:00,39.9,33.6,29.82,SSW,201,10.4,10.4,78,0.00,SCT,,0.00,62.0,WeatherDisplay:10.37,2013-01-12 14:24:00,
2013-01-12 08:29:00,39.3,33.0,29.82,South,181,15.0,15.0,78,0.00,SCT,,0.00,53.0,WeatherDisplay:10.37,2013-01-12 14:29:00,
2013-01-12 08:34:00,38.8,32.8,29.82,SSW,196,6.9,6.9,79,0.00,BKN,,0.00,47.0,WeatherDisplay:10.37,2013-01-12 14:34:00,
2013-01-12 08:39:00,38.4,32.8,29.83,WSW,239,11.5,11.5,80,0.00,BKN,,0.00,56.0,WeatherDisplay:10.37,2013-01-12 14:39:00,
2013-01-12 08:44:00,37.9,32.3,29.83,SSW,194,7.0,7.0,80,0.00,BKN,,0.00,44.0,WeatherDisplay:10.37,2013-01-12 14:44:00,
2013-01-12 08:49:00,37.4,31.8,29.83,SSW,208,17.3,17.3,80,0.00,BKN,,0.00,62.0,WeatherDisplay:10.37,2013-01-12 14:49:00,
2013-01-12 08:54:00,37.1,31.5,29.83,SSW,197,13.8,13.8,80,0.00,BKN,,0.00,62.0,WeatherDisplay:10.37,2013-01-12 14:54:00,
2013-01-12 08:59:00,36.8,31.5,29.84,SSW,198,13.8,13.8,81,0.00,BKN,,0.00,47.0,WeatherDisplay:10.37,2013-01-12 14:59:00,
2013-01-12 09:04:00,36.5,31.2,29.84,SSW,213,17.3,17.3,81,0.00,BKN,,0.00,49.0,WeatherDisplay:10.37,2013-01-12 15:04:00,
2013-01-12 09:09:00,36.3,31.3,29.84,SSE,159,8.1,8.1,82,0.00,BKN,,0.00,49.0,WeatherDisplay:10.37,2013-01-12 15:09:00,
2013-01-12 09:14:00,36.1,31.1,29.85,South,187,10.4,10.4,82,0.00,BKN,,0.00,63.0,WeatherDisplay:10.37,2013-01-12 15:14:00,
2013-01-12 09:19:00,36.0,31.0,29.85,SSW,200,12.7,12.7,82,0.00,BKN,,0.00,67.0,WeatherDisplay:10.37,2013-01-12 15:19:00,
2013-01-12 09:24:00,36.0,31.0,29.85,SSW,205,9.2,9.2,82,0.00,BKN,,0.00,67.0,WeatherDisplay:10.37,2013-01-12 15:24:00,
2013-01-12 09:29:00,35.7,30.7,29.86,South,189,13.8,13.8,82,0.00,BKN,,0.00,54.0,WeatherDisplay:10.37,2013-01-12 15:29:00,
2013-01-12 09:34:00,35.5,30.5,29.86,South,189,13.8,13.8,82,0.00,BKN,,0.00,62.0,WeatherDisplay:10.37,2013-01-12 15:34:00,
2013-01-12 09:39:00,35.3,30.4,29.86,South,186,10.4,10.4,82,0.00,BKN,,0.00,102.0,WeatherDisplay:10.37,2013-01-12 15:39:00,
2013-01-12 09:44:00,35.6,30.9,29.86,SW,220,12.7,12.7,83,0.00,BKN,,0.00,69.0,WeatherDisplay:10.37,2013-01-12 15:44:00,
2013-01-12 09:49:00,35.7,30.7,29.86,SSW,198,6.9,6.9,82,0.00,BKN,,0.00,69.0,WeatherDisplay:10.37,2013-01-12 15:49:00,
2013-01-12 09:54:00,36.0,31.3,29.87,SW,216,11.5,11.5,83,0.00,BKN,,0.00,156.0,WeatherDisplay:10.37,2013-01-12 15:54:00,
2013-01-12 09:59:00,36.1,31.1,29.87,South,181,13.0,13.0,82,0.00,BKN,,0.00,63.0,WeatherDisplay:10.37,2013-01-12 15:59:00,
2013-01-12 10:04:00,36.2,31.2,29.87,SSE,155,9.2,9.2,82,0.00,BKN,,0.00,51.0,WeatherDisplay:10.37,2013-01-12 16:04:00,
2013-01-12 10:09:00,36.4,31.4,29.87,SW,235,6.9,6.9,82,0.00,BKN,,0.00,111.0,WeatherDisplay:10.37,2013-01-12 16:09:00,
2013-01-12 10:15:00,36.6,31.6,29.87,SSW,200,6.0,15.0,82,0.00,BKN,,0.00,56.0,WeatherDisplay:10.37,2013-01-12 16:15:00,
2013-01-12 10:20:00,36.7,31.4,29.88,SSW,208,6.0,15.0,81,0.00,BKN,,0.00,86.0,WeatherDisplay:10.37,2013-01-12 16:20:00,
2013-01-12 10:25:00,36.8,31.2,29.89,SSW,194,6.9,6.9,80,0.00,BKN,,0.00,104.0,WeatherDisplay:10.37,2013-01-12 16:25:00,
2013-01-12 10:30:00,37.1,31.8,29.88,SSW,204,3.0,9.0,81,0.00,BKN,,0.00,130.0,WeatherDisplay:10.37,2013-01-12 16:30:00,
2013-01-12 10:35:00,37.3,31.7,29.88,SSE,167,12.7,12.7,80,0.00,BKN,,0.00,179.0,WeatherDisplay:10.37,2013-01-12 16:35:00,
2013-01-12 10:40:00,37.4,31.5,29.88,SSW,200,6.0,16.0,79,0.00,BKN,,0.00,176.0,WeatherDisplay:10.37,2013-01-12 16:40:00,
2013-01-12 10:45:00,37.5,31.3,29.89,SSW,212,5.8,5.8,78,0.00,SCT,,0.00,142.0,WeatherDisplay:10.37,2013-01-12 16:45:00,
2013-01-12 10:50:00,37.5,30.6,29.89,SW,214,8.0,18.0,76,0.00,BKN,,0.00,290.0,WeatherDisplay:10.37,2013-01-12 16:50:00,
2013-01-12 10:55:00,37.5,31.3,29.89,SW,214,9.2,9.2,78,0.00,SCT,,0.00,339.0,WeatherDisplay:10.37,2013-01-12 16:55:00,
2013-01-12 11:00:00,37.1,30.2,29.89,SSW,200,10.4,10.4,76,0.00,CLR,,0.00,244.0,WeatherDisplay:10.37,2013-01-12 17:00:00,
2013-01-12 11:05:00,37.2,30.0,29.89,SW,229,11.5,11.5,75,0.00,FEW,,0.00,236.0,WeatherDisplay:10.37,2013-01-12 17:05:00,
2013-01-12 11:10:00,37.0,29.8,29.89,SSW,194,5.0,14.0,75,0.00,FEW,,0.00,255.0,WeatherDisplay:10.37,2013-01-12 17:10:00,
2013-01-12 11:15:00,36.4,29.2,29.89,SSW,210,13.8,13.8,75,0.00,SCT,,0.00,169.0,WeatherDisplay:10.37,2013-01-12 17:15:00,
2013-01-12 11:20:00,36.1,28.9,29.89,SSW,207,7.0,17.0,75,0.00,BKN,,0.00,134.0,WeatherDisplay:10.37,2013-01-12 17:20:00,
2013-01-12 11:25:00,36.0,29.2,29.88,SW,227,13.8,13.8,76,0.00,BKN,,0.00,243.0,WeatherDisplay:10.37,2013-01-12 17:25:00,
2013-01-12 11:30:00,36.2,29.0,29.88,SSW,209,6.0,15.0,75,0.00,SCT,,0.00,139.0,WeatherDisplay:10.37,2013-01-12 17:30:00,
2013-01-12 11:35:00,36.2,29.0,29.88,SW,228,10.4,10.4,75,0.00,BKN,,0.00,146.0,WeatherDisplay:10.37,2013-01-12 17:35:00,
2013-01-12 11:40:00,35.6,28.5,29.88,SSW,205,5.0,13.0,75,0.00,BKN,,0.00,172.0,WeatherDisplay:10.37,2013-01-12 17:40:00,
2013-01-12 11:45:00,35.5,28.7,29.88,SW,220,10.4,10.4,76,0.00,BKN,,0.00,190.0,WeatherDisplay:10.37,2013-01-12 17:45:00,
2013-01-12 11:50:00,35.4,28.9,29.88,SW,223,5.0,12.0,77,0.00,BKN,,0.00,176.0,WeatherDisplay:10.37,2013-01-12 17:50:00,
2013-01-12 11:55:00,35.1,28.3,29.89,South,172,8.1,8.1,76,0.00,BKN,,0.00,169.0,WeatherDisplay:10.37,2013-01-12 17:55:00,
2013-01-12 12:00:00,35.0,28.5,29.90,WSW,241,4.6,4.6,77,0.00,BKN,,0.00,167.0,WeatherDisplay:10.37,2013-01-12 18:00:00,
2013-01-12 12:05:00,34.9,28.4,29.90,SW,219,5.0,5.0,77,0.00,BKN,,0.00,155.0,WeatherDisplay:10.37,2013-01-12 18:05:00,
2013-01-12 12:10:00,34.7,28.2,29.90,SSW,211,3.0,20.0,77,0.00,BKN,,0.00,156.0,WeatherDisplay:10.37,2013-01-12 18:10:00,
2013-01-12 12:15:00,34.5,28.0,29.90,SSW,198,9.2,9.2,77,0.00,BKN,,0.00,158.0,WeatherDisplay:10.37,2013-01-12 18:15:00,
2013-01-12 12:20:00,34.5,28.0,29.90,SSW,198,6.0,14.0,77,0.00,BKN,,0.00,188.0,WeatherDisplay:10.37,2013-01-12 18:20:00,
2013-01-12 12:25:00,34.5,27.7,29.89,WSW,254,11.5,11.5,76,0.00,BKN,,0.00,216.0,WeatherDisplay:10.37,2013-01-12 18:25:00,
2013-01-12 12:30:00,34.5,28.1,29.89,SSW,193,5.0,10.0,77,0.00,SCT,,0.00,279.0,WeatherDisplay:10.37,2013-01-12 18:30:00,
2013-01-12 12:35:00,34.9,28.4,29.89,SW,227,10.4,10.4,77,0.00,SCT,,0.00,269.0,WeatherDisplay:10.37,2013-01-12 18:35:00,
2013-01-12 12:40:00,34.9,27.8,29.89,SW,222,9.0,16.0,75,0.00,CLR,,0.00,598.0,WeatherDisplay:10.37,2013-01-12 18:40:00,
2013-01-12 12:45:00,34.5,26.7,29.89,WSW,243,11.5,11.5,73,0.00,CLR,,0.00,397.0,WeatherDisplay:10.37,2013-01-12 18:45:00,
2013-01-12 12:50:00,34.1,26.3,29.89,SW,216,5.0,14.0,73,0.00,CLR,,0.00,186.0,WeatherDisplay:10.37,2013-01-12 18:50:00,
2013-01-12 12:55:00,33.7,26.3,29.89,SW,226,11.5,11.5,74,0.00,SCT,,0.00,160.0,WeatherDisplay:10.37,2013-01-12 18:55:00,
2013-01-12 13:00:00,33.5,26.1,29.90,WSW,251,12.7,12.7,74,0.00,BKN,,0.00,160.0,WeatherDisplay:10.37,2013-01-12 19:00:00,
2013-01-12 13:05:00,33.3,25.6,29.91,SSW,210,16.1,16.1,73,0.00,BKN,,0.00,206.0,WeatherDisplay:10.37,2013-01-12 19:05:00,
2013-01-12 13:10:00,33.3,25.6,29.91,SSW,202,6.0,13.0,73,0.00,SCT,,0.00,262.0,WeatherDisplay:10.37,2013-01-12 19:10:00,
2013-01-12 13:15:00,33.4,25.7,29.92,SW,225,7.0,7.0,73,0.00,SCT,,0.00,236.0,WeatherDisplay:10.37,2013-01-12 19:15:00,
2013-01-12 13:20:00,33.6,25.9,29.92,SW,235,12.7,12.7,73,0.00,SCT,,0.00,244.0,WeatherDisplay:10.37,2013-01-12 19:20:00,
2013-01-12 13:25:00,33.6,25.5,29.92,SSW,196,5.8,5.8,72,0.00,SCT,,0.00,134.0,WeatherDisplay:10.37,2013-01-12 19:25:00,
2013-01-12 13:30:00,33.2,25.1,29.93,SSW,210,6.0,20.0,72,0.00,SCT,,0.00,218.0,WeatherDisplay:10.37,2013-01-12 19:30:00,
2013-01-12 13:35:00,33.2,25.1,29.93,South,175,11.5,11.5,72,0.00,SCT,,0.00,267.0,WeatherDisplay:10.37,2013-01-12 19:35:00,
2013-01-12 13:40:00,33.4,25.3,29.93,SW,217,3.0,14.0,72,0.00,FEW,,0.00,232.0,WeatherDisplay:10.37,2013-01-12 19:40:00,
2013-01-12 13:45:00,33.5,25.1,29.94,South,187,11.5,11.5,71,0.00,SCT,,0.00,151.0,WeatherDisplay:10.37,2013-01-12 19:45:00,
2013-01-12 13:50:00,33.2,24.8,29.93,SW,214,6.0,15.0,71,0.00,SCT,,0.00,148.0,WeatherDisplay:10.37,2013-01-12 19:50:00,
2013-01-12 13:55:00,33.0,25.0,29.92,SSW,192,9.2,9.2,72,0.00,BKN,,0.00,153.0,WeatherDisplay:10.37,2013-01-12 19:55:00,
2013-01-12 14:00:00,32.8,25.1,29.92,SE,142,5.8,5.8,73,0.00,BKN,,0.00,121.0,WeatherDisplay:10.37,2013-01-12 20:00:00,
2013-01-12 14:05:00,32.8,25.4,29.92,South,187,5.8,5.8,74,0.00,BKN,,0.00,118.0,WeatherDisplay:10.37,2013-01-12 20:05:00,
2013-01-12 14:10:00,32.6,24.9,29.93,SSW,194,6.0,13.0,73,0.00,BKN,,0.00,141.0,WeatherDisplay:10.37,2013-01-12 20:10:00,
2013-01-12 14:15:00,32.6,24.9,29.93,SW,219,12.7,12.7,73,0.00,BKN,,0.00,91.0,WeatherDisplay:10.37,2013-01-12 20:15:00,
2013-01-12 14:20:00,32.3,24.6,29.93,SSW,195,3.0,12.0,73,0.00,BKN,,0.00,134.0,WeatherDisplay:10.37,2013-01-12 20:20:00,
2013-01-12 14:25:00,32.4,25.0,29.93,SSW,204,5.8,5.8,74,0.00,BKN,,0.00,123.0,WeatherDisplay:10.37,2013-01-12 20:25:00,
2013-01-12 14:30:00,32.3,24.9,29.94,SSW,210,6.0,17.0,74,0.00,BKN,,0.00,98.0,WeatherDisplay:10.37,2013-01-12 20:30:00,
2013-01-12 14:35:00,32.2,24.8,29.94,SSE,165,11.5,11.5,74,0.00,BKN,,0.00,107.0,WeatherDisplay:10.37,2013-01-12 20:35:00,
2013-01-12 14:40:00,32.2,24.5,29.95,SSW,195,5.0,13.0,73,0.00,SCT,,0.00,144.0,WeatherDisplay:10.37,2013-01-12 20:40:00,
2013-01-12 14:45:00,32.2,24.5,29.95,SW,231,6.9,6.9,73,0.00,SCT,,0.00,77.0,WeatherDisplay:10.37,2013-01-12 20:45:00,
2013-01-12 14:50:00,32.1,24.7,29.94,SSW,202,2.0,7.0,74,0.00,BKN,,0.00,65.0,WeatherDisplay:10.37,2013-01-12 20:50:00,
2013-01-12 14:55:00,32.0,25.0,29.94,SW,217,3.5,3.5,75,0.00,BKN,,0.00,53.0,WeatherDisplay:10.37,2013-01-12 20:55:00,
2013-01-12 15:00:00,31.8,24.5,29.95,SW,217,6.9,6.9,74,0.00,BKN,,0.00,47.0,WeatherDisplay:10.37,2013-01-12 21:00:00,
2013-01-12 15:05:00,31.7,24.7,29.95,South,173,9.2,9.2,75,0.00,BKN,,0.00,65.0,WeatherDisplay:10.37,2013-01-12 21:05:00,
2013-01-12 15:10:00,31.6,24.6,29.95,SSW,199,3.0,10.0,75,0.00,BKN,,0.00,62.0,WeatherDisplay:10.37,2013-01-12 21:10:00,
2013-01-12 15:15:00,31.5,24.5,29.95,South,186,11.5,11.5,75,0.00,BKN,,0.00,37.0,WeatherDisplay:10.37,2013-01-12 21:15:00,
2013-01-12 15:20:00,31.5,24.8,29.95,SSW,212,3.0,9.0,76,0.00,BKN,,0.00,28.0,WeatherDisplay:10.37,2013-01-12 21:20:00,
2013-01-12 15:25:00,31.4,24.7,29.95,SSW,208,6.9,6.9,76,0.00,BKN,,0.00,26.0,WeatherDisplay:10.37,2013-01-12 21:25:00,
2013-01-12 15:30:00,31.3,24.6,29.96,South,188,5.0,10.0,76,0.00,BKN,,0.00,21.0,WeatherDisplay:10.37,2013-01-12 21:30:00,
2013-01-12 15:35:00,31.3,24.6,29.96,SW,221,4.6,4.6,76,0.00,BKN,,0.00,19.0,WeatherDisplay:10.37,2013-01-12 21:35:00,
2013-01-12 15:40:00,31.4,25.0,29.96,SW,214,5.0,5.0,77,0.00,BKN,,0.00,19.0,WeatherDisplay:10.37,2013-01-12 21:40:00,
2013-01-12 15:45:00,31.1,24.4,29.96,SSW,210,5.8,5.8,76,0.00,BKN,,0.00,19.0,WeatherDisplay:10.37,2013-01-12 21:45:00,
2013-01-12 15:50:00,31.0,24.3,29.95,SW,217,4.6,4.6,76,0.00,BKN,,0.00,21.0,WeatherDisplay:10.37,2013-01-12 21:50:00,
2013-01-12 15:55:00,30.8,24.1,29.96,SW,221,6.9,6.9,76,0.00,BKN,,0.00,25.0,WeatherDisplay:10.37,2013-01-12 21:55:00,
2013-01-12 16:00:00,30.7,24.0,29.96,WSW,250,12.7,12.7,76,0.00,BKN,,0.00,23.0,WeatherDisplay:10.37,2013-01-12 22:00:00,
2013-01-12 16:05:00,30.5,23.8,29.97,SSW,192,3.5,3.5,76,0.00,BKN,,0.00,23.0,WeatherDisplay:10.37,2013-01-12 22:05:00,
2013-01-12 16:10:00,30.6,24.2,29.98,SSW,207,3.0,7.0,77,0.00,BKN,,0.00,14.0,WeatherDisplay:10.37,2013-01-12 22:10:00,
2013-01-12 16:15:00,30.6,24.2,29.98,SW,217,4.6,4.6,77,0.00,BKN,,0.00,7.0,WeatherDisplay:10.37,2013-01-12 22:15:00,
2013-01-12 16:20:00,30.5,24.1,29.98,SSW,210,6.0,12.0,77,0.00,BKN,,0.00,5.0,WeatherDisplay:10.37,2013-01-12 22:20:00,
2013-01-12 16:25:00,30.4,23.7,29.99,SSW,198,8.1,8.1,76,0.00,OVC,,0.00,0.0,WeatherDisplay:10.37,2013-01-12 22:25:00,
2013-01-12 16:30:00,30.4,24.1,29.98,South,184,10.0,10.0,77,0.00,OVC,,0.00,0.0,WeatherDisplay:10.37,2013-01-12 22:30:00,
2013-01-12 16:35:00,30.3,24.0,29.98,SSE,166,9.2,9.2,77,0.00,OVC,,0.00,0.0,WeatherDisplay:10.37,2013-01-12 22:35:00,
2013-01-12 16:40:00,30.3,23.6,29.99,SSW,196,3.0,12.0,76,0.00,OVC,,0.00,0.0,WeatherDisplay:10.37,2013-01-12 22:40:00,
2013-01-12 16:45:00,30.3,24.0,29.99,South,174,16.1,16.1,77,0.00,OVC,,0.00,0.0,WeatherDisplay:10.37,2013-01-12 22:45:00,
2013-01-12 16:50:00,30.2,23.9,29.99,WSW,239,4.0,4.4,77,0.00,OVC,,0.00,0.0,WeatherDisplay:10.37,2013-01-12 22:50:00,
2013-01-12 16:55:00,30.2,23.9,29.99,SSW,205,9.2,9.2,77,0.00,OVC,,0.00,0.0,WeatherDisplay:10.37,2013-01-12 22:55:00,
2013-01-12 17:00:00,30.2,23.9,29.99,SSW,199,3.5,3.5,77,0.00,CLR,,0.00,0.0,WeatherDisplay:10.37,2013-01-12 23:00:00,
2013-01-12 17:05:00,30.2,24.2,29.99,SSW,202,3.5,3.5,78,0.00,CLR,,0.00,0.0,WeatherDisplay:10.37,2013-01-12 23:05:00,
2013-01-12 17:10:00,30.1,24.1,29.98,SW,221,8.1,8.1,78,0.00,CLR,,0.00,0.0,WeatherDisplay:10.37,2013-01-12 23:10:00,
2013-01-12 17:15:00,30.1,24.1,29.98,SSW,213,3.5,3.5,78,0.00,CLR,,0.00,0.0,WeatherDisplay:10.37,2013-01-12 23:15:00,
2013-01-12 17:20:00,30.1,24.1,29.98,SW,228,3.5,3.5,78,0.00,CLR,,0.00,0.0,WeatherDisplay:10.37,2013-01-12 23:20:00,
2013-01-12 17:25:00,30.1,24.1,29.97,South,173,4.0,4.0,78,0.00,CLR,,0.00,0.0,WeatherDisplay:10.37,2013-01-12 23:25:00,
2013-01-12 17:30:00,30.0,24.0,29.96,SSW,207,1.0,5.0,78,0.00,CLR,,0.00,0.0,WeatherDisplay:10.37,2013-01-12 23:30:00,
2013-01-12 17:35:00,30.0,24.3,29.96,South,187,0.0,0.0,79,0.00,CLR,,0.00,0.0,WeatherDisplay:10.37,2013-01-12 23:35:00,
2013-01-12 17:40:00,30.0,24.3,29.95,South,187,0.0,0.0,79,0.00,CLR,,0.00,0.0,WeatherDisplay:10.37,2013-01-12 23:40:00,
2013-01-12 17:45:00,30.1,24.4,29.95,SSE,163,0.0,0.0,79,0.00,CLR,,0.00,0.0,WeatherDisplay:10.37,2013-01-12 23:45:00,
2013-01-12 17:50:00,30.1,24.7,29.95,South,171,0.0,1.0,80,0.00,CLR,,0.00,0.0,WeatherDisplay:10.37,2013-01-12 23:50:00,
2013-01-12 17:55:00,30.1,24.7,29.94,NW,305,0.0,0.0,80,0.00,CLR,,0.00,0.0,WeatherDisplay:10.37,2013-01-12 23:55:00,
2013-01-12 18:00:00,30.0,24.3,29.95,SW,214,0.0,0.0,79,0.00,CLR,,0.00,0.0,WeatherDisplay:10.37,2013-01-13 00:00:00,
2013-01-12 18:05:00,30.0,24.3,29.95,SSW,194,3.5,3.5,79,0.00,CLR,,0.00,0.0,WeatherDisplay:10.37,2013-01-13 00:05:00,
2013-01-12 18:10:00,29.9,24.2,29.96,SSW,208,3.5,3.5,79,0.00,CLR,,0.00,0.0,WeatherDisplay:10.37,2013-01-13 00:10:00,
2013-01-12 18:15:00,29.8,23.8,29.96,South,174,1.1,1.1,78,0.00,CLR,,0.00,0.0,WeatherDisplay:10.37,2013-01-13 00:15:00,
2013-01-12 18:20:00,29.8,23.8,29.95,South,174,0.0,0.7,78,0.00,CLR,,0.00,0.0,WeatherDisplay:10.37,2013-01-13 00:20:00,
2013-01-12 18:25:00,29.7,23.7,29.96,South,174,0.0,0.0,78,0.00,CLR,,0.00,0.0,WeatherDisplay:10.37,2013-01-13 00:25:00,
2013-01-12 18:30:00,29.8,23.8,29.97,South,174,2.3,2.3,78,0.00,CLR,,0.00,0.0,WeatherDisplay:10.37,2013-01-13 00:30:00,
2013-01-12 18:35:00,29.8,23.8,29.97,SW,218,2.3,2.3,78,0.00,CLR,,0.00,0.0,WeatherDisplay:10.37,2013-01-13 00:35:00,
2013-01-12 18:40:00,29.7,23.4,29.97,SSW,206,1.0,4.0,77,0.00,CLR,,0.00,0.0,WeatherDisplay:10.37,2013-01-13 00:40:00,
2013-01-12 18:45:00,29.7,23.7,29.97,SW,230,3.5,3.5,78,0.00,CLR,,0.00,0.0,WeatherDisplay:10.37,2013-01-13 00:45:00,
2013-01-12 18:50:00,29.6,23.3,29.97,SSW,201,3.5,3.5,77,0.00,CLR,,0.00,0.0,WeatherDisplay:10.37,2013-01-13 00:50:00,
2013-01-12 18:55:00,29.7,23.7,29.96,SSW,202,0.0,0.0,78,0.00,CLR,,0.00,0.0,WeatherDisplay:10.37,2013-01-13 00:55:00,
2013-01-12 19:00:00,29.7,24.0,29.95,NW,310,0.0,0.0,79,0.00,CLR,,0.00,0.0,WeatherDisplay:10.37,2013-01-13 01:00:00,
2013-01-12 19:05:00,29.7,24.0,29.96,NW,310,0.0,0.0,79,0.00,CLR,,0.00,0.0,WeatherDisplay:10.37,2013-01-13 01:05:00,
2013-01-12 19:10:00,29.6,23.9,29.97,West,277,0.0,3.0,79,0.00,CLR,,0.00,0.0,WeatherDisplay:10.37,2013-01-13 01:10:00,
2013-01-12 19:15:00,29.5,23.8,29.97,SW,225,2.3,2.3,79,0.00,CLR,,0.00,0.0,WeatherDisplay:10.37,2013-01-13 01:15:00,
2013-01-12 19:20:00,29.4,23.4,29.98,SW,223,1.0,5.0,78,0.00,CLR,,0.00,0.0,WeatherDisplay:10.37,2013-01-13 01:20:00,
2013-01-12 19:25:00,29.3,23.3,29.99,SW,221,3.5,3.5,78,0.00,CLR,,0.00,0.0,WeatherDisplay:10.37,2013-01-13 01:25:00,
2013-01-12 19:30:00,29.3,23.3,30.00,SSW,197,2.3,2.3,78,0.00,CLR,,0.00,0.0,WeatherDisplay:10.37,2013-01-13 01:30:00,
2013-01-12 19:35:00,29.3,23.3,30.00,SW,228,0.0,0.0,78,0.00,CLR,,0.00,0.0,WeatherDisplay:10.37,2013-01-13 01:35:00,
2013-01-12 19:40:00,29.2,22.9,30.00,SW,219,2.0,2.0,77,0.00,CLR,,0.00,0.0,WeatherDisplay:10.37,2013-01-13 01:40:00,
2013-01-12 19:45:00,29.3,23.3,30.00,WSW,241,0.0,0.0,78,0.00,CLR,,0.00,0.0,WeatherDisplay:10.37,2013-01-13 01:45:00,
2013-01-12 19:50:00,29.2,23.2,30.00,WSW,241,0.0,0.0,78,0.00,CLR,,0.00,0.0,WeatherDisplay:10.37,2013-01-13 01:50:00,
2013-01-12 19:55:00,29.2,23.2,30.00,WSW,241,0.0,0.0,78,0.00,CLR,,0.00,0.0,WeatherDisplay:10.37,2013-01-13 01:55:00,
2013-01-12 20:00:00,29.2,23.2,30.00,WSW,241,0.0,0.0,78,0.00,CLR,,0.00,0.0,WeatherDisplay:10.37,2013-01-13 02:00:00,
2013-01-12 20:05:00,29.1,23.1,30.00,SW,219,0.0,0.0,78,0.00,CLR,,0.00,0.0,WeatherDisplay:10.37,2013-01-13 02:05:00,
2013-01-12 20:10:00,29.1,23.1,30.00,West,275,0.0,0.0,78,0.00,CLR,,0.00,0.0,WeatherDisplay:10.37,2013-01-13 02:10:00,
2013-01-12 20:15:00,29.0,23.0,30.01,SSW,208,1.1,1.1,78,0.00,CLR,,0.00,0.0,WeatherDisplay:10.37,2013-01-13 02:15:00,
2013-01-12 20:20:00,29.0,23.0,30.02,South,188,4.6,4.6,78,0.00,CLR,,0.00,0.0,WeatherDisplay:10.37,2013-01-13 02:20:00,
2013-01-12 20:25:00,28.9,22.9,30.02,SSW,204,3.5,3.5,78,0.00,CLR,,0.00,0.0,WeatherDisplay:10.37,2013-01-13 02:25:00,
2013-01-12 20:30:00,28.8,22.8,30.03,WSW,248,3.5,3.5,78,0.00,CLR,,0.00,0.0,WeatherDisplay:10.37,2013-01-13 02:30:00,
2013-01-12 20:35:00,28.6,22.3,30.03,SW,214,3.5,3.5,77,0.00,CLR,,0.00,0.0,WeatherDisplay:10.37,2013-01-13 02:35:00,
2013-01-12 20:40:00,28.5,22.2,30.03,SSW,207,3.0,3.0,77,0.00,CLR,,0.00,0.0,WeatherDisplay:10.37,2013-01-13 02:40:00,
2013-01-12 20:45:00,28.4,22.1,30.02,SW,221,2.3,0.0,77,0.00,CLR,,0.00,0.0,WeatherDisplay:10.37,2013-01-13 02:45:00,
2013-01-12 20:50:00,28.2,21.9,30.01,SW,231,0.0,0.0,77,0.00,CLR,,0.00,0.0,WeatherDisplay:10.37,2013-01-13 02:50:00,
2013-01-12 20:55:00,28.2,22.2,30.01,SSW,205,0.0,0.0,78,0.00,CLR,,0.00,0.0,WeatherDisplay:10.37,2013-01-13 02:55:00,
2013-01-12 21:00:00,28.1,22.1,30.01,SSE,149,1.1,1.1,78,0.00,CLR,,0.00,0.0,WeatherDisplay:10.37,2013-01-13 03:00:00,
2013-01-12 21:05:00,28.1,22.1,30.01,SW,221,3.5,3.5,78,0.00,CLR,,0.00,0.0,WeatherDisplay:10.37,2013-01-13 03:05:00,
2013-01-12 21:10:00,28.1,22.1,30.01,SSW,204,2.3,2.3,78,0.00,CLR,,0.00,0.0,WeatherDisplay:10.37,2013-01-13 03:10:00,
2013-01-12 21:15:00,28.1,22.1,30.01,WSW,244,1.1,0.0,78,0.00,CLR,,0.00,0.0,WeatherDisplay:10.37,2013-01-13 03:15:00,
2013-01-12 21:21:00,28.1,22.1,30.01,SW,216,2.3,2.3,78,0.00,CLR,,0.00,0.0,WeatherDisplay:10.37,2013-01-13 03:21:00,
2013-01-12 21:26:00,28.1,22.4,30.00,SSW,194,2.3,0.0,79,0.00,CLR,,0.00,0.0,WeatherDisplay:10.37,2013-01-13 03:26:00,
2013-01-12 21:31:00,28.1,22.1,30.00,SSW,193,1.1,1.1,78,0.00,CLR,,0.00,0.0,WeatherDisplay:10.37,2013-01-13 03:31:00,
2013-01-12 21:36:00,28.1,22.1,30.00,NW,318,2.3,2.3,78,0.00,CLR,,0.00,0.0,WeatherDisplay:10.37,2013-01-13 03:36:00,
2013-01-12 21:41:00,28.0,22.3,30.01,SSW,204,3.5,3.5,79,0.00,CLR,,0.00,0.0,WeatherDisplay:10.37,2013-01-13 03:41:00,
2013-01-12 21:46:00,27.7,22.3,30.01,WSW,250,0.0,0.0,80,0.00,CLR,,0.00,0.0,WeatherDisplay:10.37,2013-01-13 03:46:00,
2013-01-12 21:51:00,27.3,22.5,30.00,WNW,284,0.0,0.0,82,0.00,CLR,,0.00,0.0,WeatherDisplay:10.37,2013-01-13 03:51:00,
2013-01-12 21:56:00,27.1,22.6,30.00,WNW,283,0.0,0.0,83,0.00,CLR,,0.00,0.0,WeatherDisplay:10.37,2013-01-13 03:56:00,
2013-01-12 22:01:00,26.8,22.6,29.99,WNW,294,1.1,0.0,84,0.00,CLR,,0.00,0.0,WeatherDisplay:10.37,2013-01-13 04:01:00,
2013-01-12 22:06:00,26.4,22.2,29.99,NW,305,0.0,0.0,84,0.00,CLR,,0.00,0.0,WeatherDisplay:10.37,2013-01-13 04:06:00,
2013-01-12 22:11:00,26.3,22.4,29.98,WNW,301,0.0,0.0,85,0.00,CLR,,0.00,0.0,WeatherDisplay:10.37,2013-01-13 04:11:00,
2013-01-12 22:16:00,26.1,22.5,29.97,WNW,282,0.0,0.0,86,0.00,CLR,,0.00,0.0,WeatherDisplay:10.37,2013-01-13 04:16:00,
2013-01-12 22:21:00,25.8,22.2,29.96,NW,304,1.1,0.0,86,0.00,CLR,,0.00,0.0,WeatherDisplay:10.37,2013-01-13 04:21:00,
2013-01-12 22:26:00,25.7,22.4,29.96,WNW,291,1.1,0.0,87,0.00,CLR,,0.00,0.0,WeatherDisplay:10.37,2013-01-13 04:26:00,
2013-01-12 22:31:00,25.7,22.4,29.96,WNW,293,0.0,0.0,87,0.00,CLR,,0.00,0.0,WeatherDisplay:10.37,2013-01-13 04:31:00,
2013-01-12 22:36:00,25.6,22.3,29.95,WNW,287,3.5,3.5,87,0.00,CLR,,0.00,0.0,WeatherDisplay:10.37,2013-01-13 04:36:00,
2013-01-12 22:41:00,25.7,22.6,29.96,WSW,250,3.5,3.5,88,0.00,CLR,,0.00,0.0,WeatherDisplay:10.37,2013-01-13 04:41:00,
2013-01-12 22:46:00,25.8,22.7,29.95,WSW,250,0.0,0.0,88,0.00,CLR,,0.00,0.0,WeatherDisplay:10.37,2013-01-13 04:46:00,
2013-01-12 22:51:00,25.7,22.6,29.94,West,281,1.1,0.0,88,0.00,CLR,,0.00,0.0,WeatherDisplay:10.37,2013-01-13 04:51:00,
2013-01-12 22:56:00,25.5,22.4,29.94,WNW,291,2.3,2.3,88,0.00,CLR,,0.00,0.0,WeatherDisplay:10.37,2013-01-13 04:56:00,
2013-01-12 23:00:00,25.5,22.4,29.94,West,261,0.0,2.0,88,0.00,CLR,,0.00,0.0,WeatherDisplay:10.37,2013-01-13 05:00:00,
2013-01-12 23:02:00,25.5,22.4,29.94,SW,232,0.0,0.0,88,0.00,CLR,,0.00,0.0,WeatherDisplay:10.37,2013-01-13 05:02:00,
2013-01-12 23:04:00,25.6,22.5,29.94,WSW,239,0.0,0.0,88,0.00,CLR,,0.00,0.0,WeatherDisplay:10.37,2013-01-13 05:04:00,
2013-01-12 23:09:00,25.6,22.5,29.94,NW,313,1.1,0.0,88,0.00,CLR,,0.00,0.0,WeatherDisplay:10.37,2013-01-13 05:09:00,
2013-01-12 23:14:00,25.4,22.3,29.95,WNW,293,3.5,3.5,88,0.00,CLR,,0.00,0.0,WeatherDisplay:10.37,2013-01-13 05:14:00,
2013-01-12 23:19:00,25.4,22.3,29.95,SSW,211,4.6,4.6,88,0.00,CLR,,0.00,0.0,WeatherDisplay:10.37,2013-01-13 05:19:00,
2013-01-12 23:24:00,25.5,22.4,29.95,NW,306,3.5,3.5,88,0.00,CLR,,0.00,0.0,WeatherDisplay:10.37,2013-01-13 05:24:00,
2013-01-12 23:29:00,25.6,22.5,29.95,WNW,297,0.0,0.0,88,0.00,CLR,,0.00,0.0,WeatherDisplay:10.37,2013-01-13 05:29:00,
2013-01-12 23:34:00,25.7,22.6,29.95,West,266,0.0,0.0,88,0.00,CLR,,0.00,0.0,WeatherDisplay:10.37,2013-01-13 05:34:00,
2013-01-12 23:39:00,25.6,22.5,29.95,West,275,2.3,2.3,88,0.00,CLR,,0.00,0.0,WeatherDisplay:10.37,2013-01-13 05:39:00,
2013-01-12 23:44:00,25.4,22.3,29.95,NW,304,0.0,0.0,88,0.00,CLR,,0.00,0.0,WeatherDisplay:10.37,2013-01-13 05:44:00,
2013-01-12 23:49:00,25.1,22.0,29.95,WSW,241,3.5,3.5,88,0.00,CLR,,0.00,0.0,WeatherDisplay:10.37,2013-01-13 05:49:00,
2013-01-12 23:54:00,25.1,22.0,29.95,NNW,329,2.3,2.3,88,0.00,CLR,,0.00,0.0,WeatherDisplay:10.37,2013-01-13 05:54:00,
2013-01-12 23:59:00,25.1,22.0,29.96,WSW,248,0.0,0.0,88,0.00,CLR,,0.00,0.0,WeatherDisplay:10.37,2013-01-13 05:59:00,